Погода Pisa

Погода Pisa : погода сейчас, прогноз погоды и архив. Всё, что Вы хотите узнать о погоде Pisa!

Поиск расширенной информации на нашем сайте:

Другие новости

Новости СМИ2

Главная страница сайта

Новости сайта

03.07.2017

Напоминаем, что на нашем специализированном сайте Метеоцентр.Азия вы можете получить высокодетализированные автоматические прогнозы погоды по пунктам России, СНГ и мира в авиационном формате (включающие направление и скорость ветра, видимость, явления погоды, количество и форму облачности, нижнюю и верхнюю границу облачности).


Погода Pisa - сегодня

Время (UTC), дата Ветер
(°,м/с) 
Видим.   Явления Облачность Т
(°С)
Тd
(°С)
f(%) Тe
(°С)
Pmin
(гПа)
dP
(гПа)
Po
(мм)
O2
(г/м3)
Тmin Tmax R s Состояние
почвы
06 10.12.17 100 (В) 15000 м    5/1 900 м средняя 
[Cu hum|Ac trans]
+0.2 -1.9 86 -2  1015.6  -1  761  307          замёрзшая 
09 10.12.17 120 (ЮВ) 7000 м  слаб. дождь  10/10 750 м 
[Cu Sc]
+2 -1.1 80 -1  1015.1  -0.5  761  304           
12 10.12.17 110 (В) 4000 м  слаб. дождь  10/10 450 м 
[Cu Sc]
+3 +2.3 95 1011.8  -3.3  758  302         
15 10.12.17 100 (В) 4000 м  слаб. дождь  10/10 300 м 
[Cu Sc]
+4.6 +3.7 94 +2  1006.8  -5  755  298           
18 10.12.17 200 (Ю) 4000 м  слаб. дождь  10/10 180 м 
[Cu Sc]
+10 +9.1 94 +8  1004.1  -2.7  753  291    +10     
21 10.12.17 190 (Ю) 10 км  слаб. дождь  10/10 750 м 
[Cu Sc]
+12.8 +11.4 91 +15  1003.7  -0.4  752  287           
00 11.12.17 210 (ЮЗ) 12000 м  {дождь}  10/10 600 м 
[Cu Sc]
+13.4 +11.6 89 +15  1002.8  -1  752  286         
03 11.12.17 200 (Ю) 10 км  слаб. дождь  10/10 600 м 
[Cu Sc]
+13.4 +11.6 89 +16  1001.8  -1  751  286           
06 11.12.17 190 (Ю) 10 км  {дождь}  10/10 600 м 
[Cu Sc]
+13.8 +11.7 87 +17  999.7  -2  749  285      13    мокрая 
09 11.12.17 190 (Ю) 15000 м  слаб. дождь  10/10 600 м 
[Cu Sc]
+14.2 +10.2 77 +14  1000.2  0.5  750  285           
12 11.12.17 180 (Ю) 15000 м  {дождь}  10/9 600 м средняя 
[Cu Sc|Ac trans]
+15.4 +11 75 +17  1000.1  -0.2  749  284         
15 11.12.17 190 (Ю) 15000 м    10/9 600 м средняя 
[Cu Sc|Ac trans]
+15.6 +11.4 76 +18  998.6  -1.5  748  283           
18 11.12.17 170 (Ю) 12000 м    10/9 600 м средняя 
[Cu Sc|As op]
+16 +11.4 74 +18  998.9  0.3  749  283    +16.6     
21 11.12.17 170 (Ю) 10 км    10/10 1500 м 
[Ac As]
+16 +11 72 +18  998.3  -0.6  748  283           
00 12.12.17 240 (ЮЗ) 5000 м  дождь  10/10 600 м 
[Cu Sc]
+14.4 +12.8 90 +18  1000.7  2.5  750  285         
03 12.12.17 240 (ЮЗ) 10 км  слаб. дождь  10/10 600 м 
[Cu Sc]
+11.8 +10.9 94 +13  1004.9  4.2  753  289           
06 12.12.17 240 (ЮЗ) 10 км  {дождь}  9/9 1500 м средняя 
[Ac trans]
+11.4 +8.3 81 +12  1007.1  2.1  755  290      12    мокрая 
09 12.12.17 180 (Ю) 12000 м  слаб. дождь  10/1 900 м средняя 
[Cu hum|Ac trans]
+10.6 +9 90 +11  1010.6  3.5  757  292           
12 12.12.17 120 (ЮВ) 12000 м  {дождь}  10/1 750 м средняя 
[Cu hum|Ac trans]
+11 +10.4 96 +12  1011.8  1.2  758  292      0.0     
15 12.12.17 100 (В) 15000 м    10/1 750 м средняя 
[Cu Sc|Ac trans]
+10.6 +8.9 89 +11  1012.8  759  293           
18 12.12.17 100 (В) 10 км    10/1 750 м средняя 
[Cu hum|Ac trans]
+9.8 +8.4 91 +10  1013.8  760  294    +12.2  0.0     
21 12.12.17 100 (В) 12000 м    10/5 1050 м средняя 
[Frnb|Ac trans]
+9.4 +8.6 95 +9  1015.3  1.5  761  295           
00 13.12.17 210 (ЮЗ) 12000 м  слаб. дождь  10/5 600 м средняя 
[Cu Sc|Ac trans]
+9.4 +8.6 95 +9  1015.8  0.6  761  295         
03 13.12.17 240 (ЮЗ) 12000 м  {дождь}  5/5 750 м 
[Cu Sc]
+10.4 +6.7 78 +10  1016.3  0.4  762  295           
06 13.12.17 260 (З) 15000 м  {дождь}  4/4 750 м 
[Cu hum]
+9.8 +6.3 79 +9  1016.9  0.6  762  295        влажная 
Время (UTC), дата Ветер
(°,м/с) 
Видим.   Явления Облачность Т
(°С)
Тd
(°С)
f(%) Тe
(°С)
Pmin
(гПа)
dP
(гПа)
Po
(мм)
O2
(г/м3)
Тmin Tmax R s Состояние
почвы

Для получения пояснительной информации подведите курсор к названию столбца.

ПОГОДА Pisa - архив

Всё, что Вы хотите узнать о погоде Pisa - удобно и подробно!

Выберите нужную дату (начиная с 1 января 2015* года) и нажмите кнопку "Найти".
Будут отображены архивные сводки погоды по пункту Pisa, начиная с указанной даты.


Отображать данные в формате CSV (для использования в таблицах Excel)


Внимание! Наш архив погоды предназначен исключительно для личного некоммерческого использования в познавательных целях. Если Вам необходимы официальные справки о состоянии погоды (для производственных, юридических, коммерческих и т.п. целей), обращайтесь в органы Росгидромета.

*Примечание: данная дата относится к архиву по метеостанциям СССР (Россия, СНГ, Балтия).
Архив по метеостанциям Зарубежной Европы и Азии (кроме Китая) хранится 10 дней, по другим регионам земного шара (Китай, Африка, Америка, Австралия, Океания) - 1 день.

Pisa - район местоположения метеостанции


Название, широта, долгота, высота метеостанции:
Pisa (S. Giusto) 43.7°ш. 10.4°д. 6 м над ур. моря [Italy]

Дополнительная информация

В oтличие oт бoльшинства пoгoдных сайтoв мы публикуем пoдрoбную метеoинфoрмацию в детальнoм прoфессиoнальнoм фoрмате.

Характеристики температуры и влажнoсти вoздуха измеряются на высoте 2 м в тени вдали oт зданий и деревьев.
Скoрoсть ветра измеряется на высoте 10 м (на урoвне рoста челoвека скoрoсть ветра ниже в 1.5-2 раза). Если метеoстанция нахoдится в гoрoде или в лесу, тo скoрoсть ветра занижена на 2-4 м/с пo сравнению с oткрытым местoм. Скoрoсть ветра над акватoриями крупных рек и oзёр, а также на вершинах хoлмoв на 2-5 м/с выше, чем в oбычных услoвиях.
Атмoсфернoе давление в разных тoчках местнoсти мoжет значительнo oтличаться oт давления на метеoстанции, в зависимoсти oт услoвий рельефа (при пoдъёме на 10 м давление пoнижается примернo на 1 мм рт.ст.).